^^
Saratoga-Weather Station Historical Data
Daily Summary for July 03, 2022 Units:  Metric    English   Both
Daily Weekly Monthly Yearly Custom
  High: Low: Average:
Temperature: 28.6 °C 14 °C 21.9 °C
Dew Point: 14.9 °C 11.3 °C 12.7 °C
Humidity: 85% 37% 58%
Wind Speed: 20.9km/h 0km/h 4.2km/h
Wind Gust: 22.5km/h - -
Wind- - WSW
Pressure: 1018.3 hPa 1015.9 hPa -
Precipitation: 0.0 mm    
Historical Graphs
 
 
Tabular Data for July 03, 2022
Time Temperature Dew Point Pressure Wind Wind Speed Wind Gust Humidity Rainfall Rate (Hourly) solar
00:04 18.7 °C 12 °C 1016.6 hPa Calm     65% 0.0 mm 0 W/m2
00:09 18.6 °C 12.1 °C 1016.3 hPa WSW 1.4 km/h 1.6 km/h 66% 0.0 mm 0 W/m2
00:14 18.6 °C 12.1 °C 1016.3 hPa Calm   1.6 km/h 66% 0.0 mm 0 W/m2
00:19 18.5 °C 12 °C 1016.3 hPa WSW 1.4 km/h 1.6 km/h 66% 0.0 mm 0 W/m2
00:24 18.4 °C 11.9 °C 1016.3 hPa Calm   1.6 km/h 66% 0.0 mm 0 W/m2
00:29 18.3 °C 12.1 °C 1016.3 hPa WSW 1.4 km/h 1.6 km/h 67% 0.0 mm 0 W/m2
00:34 18.2 °C 12 °C 1016.6 hPa Calm   3.2 km/h 67% 0.0 mm 0 W/m2
00:39 18.2 °C 12 °C 1016.6 hPa Calm   3.2 km/h 67% 0.0 mm 0 W/m2
00:44 18.3 °C 12.1 °C 1016.6 hPa Calm   1.6 km/h 67% 0.0 mm 0 W/m2
00:49 18.3 °C 12.1 °C 1016.6 hPa Calm     67% 0.0 mm 0 W/m2
00:54 18.3 °C 12.1 °C 1016.6 hPa SW 1.4 km/h 1.6 km/h 67% 0.0 mm 0 W/m2
00:59 18.3 °C 12.1 °C 1016.6 hPa Calm     67% 0.0 mm 0 W/m2
01:04 18.3 °C 12.1 °C 1016.6 hPa Calm     67% 0.0 mm 0 W/m2
01:10 18.2 °C 12.2 °C 1016.3 hPa Calm     68% 0.0 mm 0 W/m2
01:15 18.2 °C 12.2 °C 1016.3 hPa Calm   1.6 km/h 68% 0.0 mm 0 W/m2
01:20 18.1 °C 12.1 °C 1016.6 hPa Calm   1.6 km/h 68% 0.0 mm 0 W/m2
01:25 18 °C 12.2 °C 1016.6 hPa Calm     69% 0.0 mm 0 W/m2
01:30 17.9 °C 12.1 °C 1016.3 hPa Calm   1.6 km/h 69% 0.0 mm 0 W/m2
01:35 17.8 °C 12 °C 1016.3 hPa Calm     69% 0.0 mm 0 W/m2
01:40 17.7 °C 12.2 °C 1016.3 hPa Calm     70% 0.0 mm 0 W/m2
01:45 17.6 °C 12.1 °C 1016.6 hPa Calm     70% 0.0 mm 0 W/m2
01:50 17.4 °C 12.1 °C 1016.3 hPa Calm     71% 0.0 mm 0 W/m2
01:55 17.3 °C 12 °C 1016.6 hPa Calm     71% 0.0 mm 0 W/m2
02:00 17.3 °C 12.2 °C 1016.3 hPa Calm     72% 0.0 mm 0 W/m2
02:05 17.2 °C 12.1 °C 1016.3 hPa Calm     72% 0.0 mm 0 W/m2
02:10 17 °C 11.9 °C 1016.3 hPa Calm     72% 0.0 mm 0 W/m2
02:15 16.8 °C 11.9 °C 1016.6 hPa Calm     73% 0.0 mm 0 W/m2
02:20 16.7 °C 11.8 °C 1016.3 hPa Calm     73% 0.0 mm 0 W/m2
02:25 16.6 °C 11.9 °C 1016.3 hPa Calm     74% 0.0 mm 0 W/m2
02:30 16.4 °C 12 °C 1016.3 hPa Calm     75% 0.0 mm 0 W/m2
02:35 16.3 °C 11.9 °C 1016.3 hPa Calm     75% 0.0 mm 0 W/m2
02:40 16.2 °C 11.8 °C 1016.3 hPa Calm     75% 0.0 mm 0 W/m2
02:45 16.2 °C 12 °C 1016.3 hPa Calm     76% 0.0 mm 0 W/m2
02:50 16.1 °C 11.9 °C 1016.3 hPa Calm     76% 0.0 mm 0 W/m2
02:55 15.9 °C 11.7 °C 1016.3 hPa Calm     76% 0.0 mm 0 W/m2
03:00 15.8 °C 11.8 °C 1016.3 hPa Calm     77% 0.0 mm 0 W/m2
03:05 15.7 °C 11.9 °C 1016.3 hPa Calm     78% 0.0 mm 0 W/m2
03:10 15.6 °C 11.8 °C 1016.3 hPa Calm   1.6 km/h 78% 0.0 mm 0 W/m2
03:15 15.6 °C 11.8 °C 1016.3 hPa Calm     78% 0.0 mm 0 W/m2
03:20 15.4 °C 11.6 °C 1016.3 hPa Calm   1.6 km/h 78% 0.0 mm 0 W/m2
03:25 15.3 °C 11.7 °C 1016.3 hPa Calm     79% 0.0 mm 0 W/m2
03:30 15.3 °C 11.7 °C 1016.3 hPa Calm     79% 0.0 mm 0 W/m2
03:35 15.2 °C 11.6 °C 1016.3 hPa Calm     79% 0.0 mm 0 W/m2
03:40 15.1 °C 11.5 °C 1016.3 hPa Calm     79% 0.0 mm 0 W/m2
03:45 15.1 °C 11.5 °C 1016.3 hPa Calm     79% 0.0 mm 0 W/m2
03:50 15.1 °C 11.7 °C 1016.3 hPa Calm     80% 0.0 mm 0 W/m2
03:55 15.1 °C 11.7 °C 1016.3 hPa Calm     80% 0.0 mm 0 W/m2
04:00 15.1 °C 11.7 °C 1016.3 hPa Calm     80% 0.0 mm 0 W/m2
04:05 15 °C 11.6 °C 1016.3 hPa Calm     80% 0.0 mm 0 W/m2
04:10 15 °C 11.6 °C 1016.3 hPa Calm     80% 0.0 mm 0 W/m2
04:15 14.9 °C 11.7 °C 1016.3 hPa Calm     81% 0.0 mm 0 W/m2
04:20 14.9 °C 11.7 °C 1016.3 hPa Calm     81% 0.0 mm 0 W/m2
04:25 15 °C 11.6 °C 1016.3 hPa Calm     80% 0.0 mm 0 W/m2
04:30 15 °C 11.6 °C 1016.3 hPa Calm     80% 0.0 mm 0 W/m2
04:35 15 °C 11.6 °C 1016.3 hPa Calm     80% 0.0 mm 0 W/m2
04:40 14.9 °C 11.5 °C 1016.3 hPa Calm     80% 0.0 mm 0 W/m2
04:45 14.9 °C 11.7 °C 1016.3 hPa Calm     81% 0.0 mm 0 W/m2
04:50 14.8 °C 11.6 °C 1016.6 hPa Calm     81% 0.0 mm 0 W/m2
04:55 14.7 °C 11.5 °C 1016.6 hPa Calm     81% 0.0 mm 0 W/m2
05:01 14.7 °C 11.5 °C 1016.6 hPa Calm     81% 0.0 mm 0 W/m2
05:06 14.6 °C 11.4 °C 1016.6 hPa Calm     81% 0.0 mm 0 W/m2
05:11 14.5 °C 11.3 °C 1016.6 hPa Calm     81% 0.0 mm 0 W/m2
05:16 14.4 °C 11.4 °C 1016.6 hPa Calm     82% 0.0 mm 0 W/m2
05:21 14.3 °C 11.3 °C 1016.6 hPa Calm     82% 0.0 mm 0 W/m2
05:26 14.3 °C 11.5 °C 1016.6 hPa Calm     83% 0.0 mm 0 W/m2
05:31 14.2 °C 11.4 °C 1016.6 hPa Calm     83% 0.0 mm 0 W/m2
05:36 14.1 °C 11.3 °C 1016.6 hPa Calm     83% 0.0 mm 0 W/m2
05:41 14.1 °C 11.4 °C 1016.6 hPa Calm     84% 0.0 mm 5 W/m2
05:46 14.1 °C 11.3 °C 1016.6 hPa Calm     83% 0.0 mm 7 W/m2
05:51 14.1 °C 11.4 °C 1016.6 hPa Calm     84% 0.0 mm 9 W/m2
05:56 14 °C 11.3 °C 1016.6 hPa Calm     84% 0.0 mm 11 W/m2
06:01 14 °C 11.3 °C 1016.9 hPa Calm     84% 0.0 mm 12 W/m2
06:06 14.1 °C 11.6 °C 1016.9 hPa Calm   1.6 km/h 85% 0.0 mm 14 W/m2
06:11 14.1 °C 11.4 °C 1016.9 hPa SW 1.4 km/h 1.6 km/h 84% 0.0 mm 14 W/m2
06:16 14.2 °C 11.5 °C 1016.9 hPa Calm     84% 0.0 mm 16 W/m2
06:21 14.2 °C 11.5 °C 1016.9 hPa Calm     84% 0.0 mm 18 W/m2
06:26 14.3 °C 11.6 °C 1016.9 hPa Calm     84% 0.0 mm 19 W/m2
06:31 14.4 °C 11.7 °C 1016.9 hPa Calm   1.6 km/h 84% 0.0 mm 21 W/m2
06:36 14.4 °C 11.7 °C 1016.9 hPa Calm     84% 0.0 mm 21 W/m2
06:41 14.6 °C 11.9 °C 1016.9 hPa Calm   1.6 km/h 84% 0.0 mm 23 W/m2
06:46 14.7 °C 12 °C 1016.9 hPa Calm     84% 0.0 mm 23 W/m2
06:51 14.9 °C 12 °C 1016.9 hPa Calm     83% 0.0 mm 25 W/m2
06:56 15.1 °C 12 °C 1016.9 hPa Calm   1.6 km/h 82% 0.0 mm 25 W/m2
07:01 15.3 °C 12.2 °C 1016.9 hPa Calm     82% 0.0 mm 26 W/m2
07:06 15.5 °C 12.3 °C 1016.9 hPa Calm     81% 0.0 mm 26 W/m2
07:11 15.7 °C 12.3 °C 1016.9 hPa Calm   1.6 km/h 80% 0.0 mm 28 W/m2
07:16 15.8 °C 12.4 °C 1017.3 hPa Calm     80% 0.0 mm 28 W/m2
07:21 16 °C 12.6 °C 1017.3 hPa Calm   1.6 km/h 80% 0.0 mm 72 W/m2
07:26 16.3 °C 12.7 °C 1017.3 hPa Calm     79% 0.0 mm 169 W/m2
07:31 16.7 °C 13 °C 1017.3 hPa Calm     79% 0.0 mm 185 W/m2
07:36 17.3 °C 13.2 °C 1017.3 hPa Calm     77% 0.0 mm 200 W/m2
07:41 18.3 °C 13.4 °C 1017.3 hPa West 1.4 km/h 1.6 km/h 73% 0.0 mm 213 W/m2
07:46 19.1 °C 13.5 °C 1017.3 hPa Calm   1.6 km/h 70% 0.0 mm 230 W/m2
07:51 19.5 °C 13.4 °C 1017.3 hPa Calm   1.6 km/h 68% 0.0 mm 244 W/m2
07:56 20.2 °C 13.6 °C 1017.3 hPa Calm     66% 0.0 mm 257 W/m2
08:01 20.6 °C 13.8 °C 1017.3 hPa Calm     65% 0.0 mm 271 W/m2
08:06 21.1 °C 13.8 °C 1017.3 hPa Calm   1.6 km/h 63% 0.0 mm 283 W/m2
08:11 21.3 °C 14 °C 1017.3 hPa Calm     63% 0.0 mm 295 W/m2
08:16 21.6 °C 14.3 °C 1017.3 hPa NNW 1.4 km/h 3.2 km/h 63% 0.0 mm 313 W/m2
08:21 21.9 °C 13.8 °C 1017.3 hPa ENE 1.4 km/h 3.2 km/h 60% 0.0 mm 325 W/m2
08:26 22.2 °C 14.1 °C 1017.3 hPa NE 1.4 km/h 3.2 km/h 60% 0.0 mm 244 W/m2
08:31 22.3 °C 13.9 °C 1017.3 hPa NNE 3.2 km/h 3.2 km/h 59% 0.0 mm 86 W/m2
08:36 22.4 °C 14 °C 1017.3 hPa Calm   3.2 km/h 59% 0.0 mm 76 W/m2
08:41 22.8 °C 14.4 °C 1017.3 hPa Calm   1.6 km/h 59% 0.0 mm 44 W/m2
08:46 22.9 °C 13.9 °C 1017.3 hPa WNW 1.4 km/h 3.2 km/h 57% 0.0 mm 44 W/m2
08:51 22.7 °C 13.7 °C 1017.3 hPa Calm   3.2 km/h 57% 0.0 mm 44 W/m2
08:56 23 °C 14 °C 1017.3 hPa ENE 1.4 km/h 3.2 km/h 57% 0.0 mm 42 W/m2
09:01 23.1 °C 13.8 °C 1017.3 hPa North 1.4 km/h 3.2 km/h 56% 0.0 mm 42 W/m2
09:06 22.8 °C 13.8 °C 1016.9 hPa Calm   1.6 km/h 57% 0.0 mm 40 W/m2
09:11 23.1 °C 14.1 °C 1016.9 hPa Calm   3.2 km/h 57% 0.0 mm 40 W/m2
09:16 23.4 °C 13.8 °C 1016.9 hPa North 1.4 km/h 3.2 km/h 55% 0.0 mm 40 W/m2
09:21 23.3 °C 14 °C 1016.9 hPa North 3.2 km/h 4.8 km/h 56% 0.0 mm 42 W/m2
09:26 23.4 °C 14.4 °C 1016.9 hPa NNE 1.4 km/h 3.2 km/h 57% 0.0 mm 40 W/m2
09:31 23.7 °C 14.4 °C 1016.9 hPa WSW 3.2 km/h 4.8 km/h 56% 0.0 mm 40 W/m2
09:36 23.8 °C 13.9 °C 1016.9 hPa SSW 3.2 km/h 6.4 km/h 54% 0.0 mm 40 W/m2
09:41 23.9 °C 14 °C 1016.9 hPa West 1.4 km/h 3.2 km/h 54% 0.0 mm 40 W/m2
09:46 24.2 °C 14 °C 1016.9 hPa ENE 1.4 km/h 6.4 km/h 53% 0.0 mm 42 W/m2
09:51 24.3 °C 13.5 °C 1016.9 hPa NW 4.7 km/h 8 km/h 51% 0.0 mm 44 W/m2
09:56 24.2 °C 13.4 °C 1016.9 hPa WNW 3.2 km/h 3.2 km/h 51% 0.0 mm 162 W/m2
10:01 24.2 °C 13.4 °C 1016.9 hPa West 11.1 km/h 11.3 km/h 51% 0.0 mm 439 W/m2
10:06 24.2 °C 13.1 °C 1016.9 hPa NW 1.4 km/h 4.8 km/h 50% 0.0 mm 587 W/m2
10:11 24.3 °C 13.8 °C 1016.9 hPa WSW 1.4 km/h 6.4 km/h 52% 0.0 mm 573 W/m2
10:16 24.4 °C 13.9 °C 1016.9 hPa West 6.4 km/h 8 km/h 52% 0.0 mm 42 W/m2
10:21 24.3 °C 13.5 °C 1016.9 hPa North 3.2 km/h 14.5 km/h 51% 0.0 mm 153 W/m2
10:26 24.3 °C 13.2 °C 1016.9 hPa NW 1.4 km/h 8 km/h 50% 0.0 mm 635 W/m2
10:31 24.5 °C 13.7 °C 1016.9 hPa East 4.7 km/h 12.9 km/h 51% 0.0 mm 622 W/m2
10:36 24.7 °C 12.6 °C 1016.9 hPa North 3.2 km/h 8 km/h 47% 0.0 mm 671 W/m2
10:41 24.7 °C 12.6 °C 1016.9 hPa NE 3.2 km/h 3.2 km/h 47% 0.0 mm 693 W/m2
10:46 24.8 °C 12.4 °C 1016.9 hPa ENE 3.2 km/h 9.7 km/h 46% 0.0 mm 698 W/m2
10:51 24.8 °C 12.7 °C 1016.9 hPa SSW 1.4 km/h 11.3 km/h 47% 0.0 mm 703 W/m2
10:56 25.1 °C 12.7 °C 1016.9 hPa NW 7.9 km/h 8 km/h 46% 0.0 mm 717 W/m2
11:01 25.1 °C 12.3 °C 1016.9 hPa NW 3.2 km/h 11.3 km/h 45% 0.0 mm 696 W/m2
11:06 25.2 °C 12.4 °C 1016.9 hPa West 9.7 km/h 12.9 km/h 45% 0.0 mm 744 W/m2
11:11 25.4 °C 12.9 °C 1016.9 hPa Calm   3.2 km/h 46% 0.0 mm 752 W/m2
11:16 25.8 °C 12.6 °C 1016.9 hPa Calm   4.8 km/h 44% 0.0 mm 761 W/m2
11:21 25.8 °C 12.3 °C 1016.9 hPa WNW 3.2 km/h 9.7 km/h 43% 0.0 mm 773 W/m2
11:26 25.8 °C 12.3 °C 1016.9 hPa NW 4.7 km/h 14.5 km/h 43% 0.0 mm 788 W/m2
11:31 25.8 °C 11.5 °C 1016.9 hPa WNW 6.4 km/h 19.3 km/h 41% 0.0 mm 768 W/m2
11:36 25.6 °C 11.7 °C 1016.9 hPa West 3.2 km/h 11.3 km/h 42% 0.0 mm 805 W/m2
11:41 25.7 °C 11.8 °C 1016.9 hPa NW 3.2 km/h 16.1 km/h 42% 0.0 mm 821 W/m2
11:46 25.7 °C 12.2 °C 1016.9 hPa NW 3.2 km/h 9.7 km/h 43% 0.0 mm 779 W/m2
11:51 25.8 °C 11.9 °C 1016.9 hPa East 3.2 km/h 8 km/h 42% 0.0 mm 856 W/m2
11:56 25.9 °C 12.4 °C 1016.9 hPa WSW 4.7 km/h 9.7 km/h 43% 0.0 mm 773 W/m2
12:01 26.1 °C 12.9 °C 1016.9 hPa WSW 1.4 km/h 11.3 km/h 44% 0.0 mm 819 W/m2
12:06 26.3 °C 12.4 °C 1016.9 hPa East 3.2 km/h 6.4 km/h 42% 0.0 mm 830 W/m2
12:11 26.4 °C 12.1 °C 1016.9 hPa West 4.7 km/h 6.4 km/h 41% 0.0 mm 875 W/m2
12:16 26.6 °C 12.3 °C 1016.9 hPa SE 1.4 km/h 6.4 km/h 41% 0.0 mm 896 W/m2
12:21 26.6 °C 12.3 °C 1016.9 hPa NW 4.7 km/h 8 km/h 41% 0.0 mm 828 W/m2
12:26 26.7 °C 12 °C 1016.9 hPa West 6.4 km/h 16.1 km/h 40% 0.0 mm 898 W/m2
12:31 26.8 °C 12.4 °C 1016.9 hPa West 1.4 km/h 6.4 km/h 41% 0.0 mm 944 W/m2
12:36 26.6 °C 12.3 °C 1016.9 hPa WSW 4.7 km/h 16.1 km/h 41% 0.0 mm 826 W/m2
12:41 26.5 °C 12.2 °C 1016.6 hPa East 3.2 km/h 6.4 km/h 41% 0.0 mm 863 W/m2
12:46 26.8 °C 12.8 °C 1016.6 hPa NW 4.7 km/h 6.4 km/h 42% 0.0 mm 967 W/m2
12:51 26.9 °C 12.2 °C 1016.6 hPa SE 4.7 km/h 8 km/h 40% 0.0 mm 884 W/m2
12:56 26.9 °C 12.2 °C 1016.6 hPa WNW 6.4 km/h 17.7 km/h 40% 0.0 mm 918 W/m2
13:01 27.1 °C 12.7 °C 1016.6 hPa WNW 19.5 km/h 19.3 km/h 41% 0.0 mm 928 W/m2
13:06 27.2 °C 11.6 °C 1016.6 hPa West 16.3 km/h 19.3 km/h 38% 0.0 mm 918 W/m2
13:11 27.2 °C 11.6 °C 1016.6 hPa WSW 4.7 km/h 12.9 km/h 38% 0.0 mm 979 W/m2
13:16 27.4 °C 12.6 °C 1016.6 hPa SE 1.4 km/h 19.3 km/h 40% 0.0 mm 990 W/m2
13:22 27.3 °C 11.3 °C 1016.6 hPa NNE 3.2 km/h 16.1 km/h 37% 0.0 mm 956 W/m2
13:27 27.3 °C 11.7 °C 1016.6 hPa SE 6.4 km/h 11.3 km/h 38% 0.0 mm 951 W/m2
13:32 27.4 °C 11.8 °C 1016.6 hPa NNW 4.7 km/h 12.9 km/h 38% 0.0 mm 933 W/m2
13:37 27.5 °C 11.5 °C 1016.6 hPa West 6.4 km/h 12.9 km/h 37% 0.0 mm 932 W/m2
13:42 27.5 °C 11.5 °C 1016.3 hPa NW 1.4 km/h 6.4 km/h 37% 0.0 mm 991 W/m2
13:47 27.6 °C 12 °C 1016.3 hPa West 6.4 km/h 12.9 km/h 38% 0.0 mm 960 W/m2
13:52 27.6 °C 12 °C 1016.3 hPa West 6.4 km/h 14.5 km/h 38% 0.0 mm 974 W/m2
13:57 27.4 °C 12.2 °C 1016.3 hPa West 11.1 km/h 12.9 km/h 39% 0.0 mm 1018 W/m2
14:02 27.6 °C 13.2 °C 1016.3 hPa West 3.2 km/h 16.1 km/h 41% 0.0 mm 1009 W/m2
14:07 27.8 °C 13.3 °C 1016.3 hPa NNW 9.7 km/h 12.9 km/h 41% 0.0 mm 962 W/m2
14:12 27.8 °C 13 °C 1016.3 hPa NW 7.9 km/h 17.7 km/h 40% 0.0 mm 970 W/m2
14:17 27.7 °C 12.1 °C 1016.3 hPa WNW 11.1 km/h 20.9 km/h 38% 0.0 mm 1042 W/m2
14:22 27.6 °C 12.4 °C 1016.3 hPa SW 7.9 km/h 9.7 km/h 39% 0.0 mm 1035 W/m2
14:27 27.7 °C 12.5 °C 1016.3 hPa NW 6.4 km/h 11.3 km/h 39% 0.0 mm 1000 W/m2
14:32 27.8 °C 12.2 °C 1016.3 hPa SW 3.2 km/h 11.3 km/h 38% 0.0 mm 258 W/m2
14:37 28 °C 12.4 °C 1016.3 hPa West 4.7 km/h 14.5 km/h 38% 0.0 mm 287 W/m2
14:42 27.9 °C 12.3 °C 1016.3 hPa West 11.1 km/h 11.3 km/h 38% 0.0 mm 1023 W/m2
14:47 27.8 °C 12.2 °C 1016.3 hPa WNW 1.4 km/h 3.2 km/h 38% 0.0 mm 540 W/m2
14:52 28.1 °C 12.8 °C 1016.3 hPa ENE 3.2 km/h 6.4 km/h 39% 0.0 mm 991 W/m2
14:57 28.1 °C 12.8 °C 1015.9 hPa WNW 3.2 km/h 6.4 km/h 39% 0.0 mm 1002 W/m2
15:02 28.1 °C 12 °C 1016.3 hPa WNW 7.9 km/h 22.5 km/h 37% 0.0 mm 949 W/m2
15:07 28.1 °C 12.4 °C 1015.9 hPa SE 1.4 km/h 4.8 km/h 38% 0.0 mm 919 W/m2
15:12 28.1 °C 12 °C 1015.9 hPa WNW 6.4 km/h 16.1 km/h 37% 0.0 mm 896 W/m2
15:17 27.8 °C 11.8 °C 1015.9 hPa South 6.4 km/h 22.5 km/h 37% 0.0 mm 926 W/m2
15:22 27.5 °C 12.3 °C 1015.9 hPa SW 7.9 km/h 16.1 km/h 39% 0.0 mm 881 W/m2
15:27 27.6 °C 12.4 °C 1015.9 hPa West 11.1 km/h 22.5 km/h 39% 0.0 mm 912 W/m2
15:32 27.9 °C 12.7 °C 1015.9 hPa WNW 11.1 km/h 14.5 km/h 39% 0.0 mm 877 W/m2
15:37 27.9 °C 12.7 °C 1015.9 hPa WNW 6.4 km/h 12.9 km/h 39% 0.0 mm 870 W/m2
15:42 28.1 °C 12.4 °C 1015.9 hPa West 11.1 km/h 22.5 km/h 38% 0.0 mm 877 W/m2
15:47 28 °C 12.8 °C 1015.9 hPa WSW 7.9 km/h 16.1 km/h 39% 0.0 mm 874 W/m2
15:52 28.2 °C 12.5 °C 1015.9 hPa West 6.4 km/h 19.3 km/h 38% 0.0 mm 817 W/m2
15:57 28.6 °C 12.9 °C 1016.3 hPa WSW 11.1 km/h 11.3 km/h 38% 0.0 mm 844 W/m2
16:02 28.2 °C 12.5 °C 1015.9 hPa NW 6.4 km/h 16.1 km/h 38% 0.0 mm 141 W/m2
16:07 28.1 °C 12.4 °C 1015.9 hPa West 6.4 km/h 19.3 km/h 38% 0.0 mm 911 W/m2
16:12 28.2 °C 12.5 °C 1015.9 hPa NW 1.4 km/h 16.1 km/h 38% 0.0 mm 888 W/m2
16:17 27.9 °C 12.7 °C 1016.3 hPa WSW 4.7 km/h 12.9 km/h 39% 0.0 mm 865 W/m2
16:22 28 °C 12.8 °C 1015.9 hPa NW 3.2 km/h 12.9 km/h 39% 0.0 mm 782 W/m2
16:27 28.1 °C 12.8 °C 1015.9 hPa West 13 km/h 12.9 km/h 39% 0.0 mm 809 W/m2
16:32 28.1 °C 14 °C 1015.9 hPa WNW 11.1 km/h 19.3 km/h 42% 0.0 mm 770 W/m2
16:37 28 °C 14.6 °C 1016.3 hPa WNW 6.4 km/h 14.5 km/h 44% 0.0 mm 786 W/m2
16:42 27.7 °C 12.9 °C 1015.9 hPa West 6.4 km/h 16.1 km/h 40% 0.0 mm 780 W/m2
16:47 27.8 °C 14.4 °C 1016.3 hPa WNW 11.1 km/h 14.5 km/h 44% 0.0 mm 772 W/m2
16:52 27.7 °C 14.7 °C 1016.3 hPa West 11.1 km/h 17.7 km/h 45% 0.0 mm 114 W/m2
16:57 27.3 °C 14.7 °C 1016.3 hPa West 11.1 km/h 19.3 km/h 46% 0.0 mm 717 W/m2
17:02 27.1 °C 14.5 °C 1016.3 hPa WNW 6.4 km/h 12.9 km/h 46% 0.0 mm 668 W/m2
17:07 27.2 °C 14.9 °C 1016.3 hPa WNW 14.3 km/h 19.3 km/h 47% 0.0 mm 617 W/m2
17:12 27 °C 14.7 °C 1016.3 hPa NW 17.7 km/h 20.9 km/h 47% 0.0 mm 684 W/m2
17:17 26.9 °C 14.6 °C 1016.3 hPa West 9.7 km/h 19.3 km/h 47% 0.0 mm 640 W/m2
17:22 26.7 °C 14.8 °C 1016.3 hPa NW 17.7 km/h 20.9 km/h 48% 0.0 mm 640 W/m2
17:27 26.8 °C 14.5 °C 1015.9 hPa NNW 13 km/h 14.5 km/h 47% 0.0 mm 638 W/m2
17:32 26.8 °C 14.5 °C 1015.9 hPa NW 4.7 km/h 12.9 km/h 47% 0.0 mm 624 W/m2
17:37 26.9 °C 14.3 °C 1015.9 hPa SW 20.9 km/h 20.9 km/h 46% 0.0 mm 612 W/m2
17:42 26.8 °C 14.2 °C 1015.9 hPa WNW 16.3 km/h 17.7 km/h 46% 0.0 mm 591 W/m2
17:47 26.8 °C 14.5 °C 1015.9 hPa NW 4.7 km/h 16.1 km/h 47% 0.0 mm 596 W/m2
17:52 26.8 °C 14.5 °C 1015.9 hPa NW 3.2 km/h 9.7 km/h 47% 0.0 mm 531 W/m2
17:57 26.8 °C 14.2 °C 1015.9 hPa WSW 14.3 km/h 19.3 km/h 46% 0.0 mm 536 W/m2
18:02 26.7 °C 14.5 °C 1015.9 hPa NNW 9.7 km/h 14.5 km/h 47% 0.0 mm 541 W/m2
18:07 26.7 °C 14.8 °C 1015.9 hPa West 14.3 km/h 22.5 km/h 48% 0.0 mm 512 W/m2
18:12 26.6 °C 14.7 °C 1015.9 hPa WSW 4.7 km/h 14.5 km/h 48% 0.0 mm 510 W/m2
18:17 26.7 °C 14.8 °C 1015.9 hPa WNW 4.7 km/h 22.5 km/h 48% 0.0 mm 513 W/m2
18:22 26.7 °C 14.5 °C 1015.9 hPa WNW 9.7 km/h 20.9 km/h 47% 0.0 mm 496 W/m2
18:27 26.6 °C 14.4 °C 1015.9 hPa WNW 17.7 km/h 17.7 km/h 47% 0.0 mm 466 W/m2
18:32 26.4 °C 14.2 °C 1016.3 hPa SSW 13 km/h 20.9 km/h 47% 0.0 mm 413 W/m2
18:37 26.1 °C 14.2 °C 1016.3 hPa WNW 7.9 km/h 17.7 km/h 48% 0.0 mm 380 W/m2
18:42 26 °C 14.1 °C 1016.3 hPa West 17.7 km/h 17.7 km/h 48% 0.0 mm 364 W/m2
18:47 25.9 °C 13.7 °C 1016.3 hPa WSW 11.1 km/h 16.1 km/h 47% 0.0 mm 336 W/m2
18:52 25.8 °C 14 °C 1016.3 hPa West 9.7 km/h 14.5 km/h 48% 0.0 mm 178 W/m2
18:57 25.9 °C 14 °C 1015.9 hPa NW 7.9 km/h 14.5 km/h 48% 0.0 mm 62 W/m2
19:02 25.8 °C 14 °C 1015.9 hPa SW 11.1 km/h 14.5 km/h 48% 0.0 mm 56 W/m2
19:07 25.8 °C 14 °C 1016.3 hPa WSW 13 km/h 20.9 km/h 48% 0.0 mm 63 W/m2
19:12 25.6 °C 13.8 °C 1016.3 hPa WNW 4.7 km/h 16.1 km/h 48% 0.0 mm 63 W/m2
19:17 25.5 °C 13.7 °C 1016.3 hPa West 14.3 km/h 22.5 km/h 48% 0.0 mm 60 W/m2
19:22 25.4 °C 13.6 °C 1016.3 hPa West 13 km/h 17.7 km/h 48% 0.0 mm 56 W/m2
19:27 25.2 °C 13.4 °C 1016.3 hPa WNW 7.9 km/h 22.5 km/h 48% 0.0 mm 53 W/m2
19:32 25.1 °C 13.6 °C 1016.3 hPa WSW 6.4 km/h 14.5 km/h 49% 0.0 mm 51 W/m2
19:37 24.9 °C 13.5 °C 1016.3 hPa West 3.2 km/h 12.9 km/h 49% 0.0 mm 54 W/m2
19:42 24.9 °C 13.5 °C 1016.3 hPa WSW 16.3 km/h 22.5 km/h 49% 0.0 mm 58 W/m2
19:47 24.7 °C 13.3 °C 1016.3 hPa WNW 6.4 km/h 16.1 km/h 49% 0.0 mm 56 W/m2
19:52 24.7 °C 13.3 °C 1016.3 hPa WSW 6.4 km/h 20.9 km/h 49% 0.0 mm 56 W/m2
19:57 24.7 °C 13.6 °C 1016.3 hPa NW 3.2 km/h 16.1 km/h 50% 0.0 mm 51 W/m2
20:02 24.7 °C 13.6 °C 1016.3 hPa WSW 6.4 km/h 14.5 km/h 50% 0.0 mm 158 W/m2
20:07 24.5 °C 13.7 °C 1016.3 hPa WSW 14.3 km/h 14.5 km/h 51% 0.0 mm 44 W/m2
20:12 24.3 °C 13.5 °C 1016.3 hPa NW 17.7 km/h 19.3 km/h 51% 0.0 mm 42 W/m2
20:17 24.2 °C 13.4 °C 1016.3 hPa NNW 4.7 km/h 14.5 km/h 51% 0.0 mm 40 W/m2
20:22 24.1 °C 13.6 °C 1016.3 hPa WSW 13 km/h 17.7 km/h 52% 0.0 mm 39 W/m2
20:27 23.9 °C 13.1 °C 1016.3 hPa WNW 6.4 km/h 19.3 km/h 51% 0.0 mm 39 W/m2
20:32 23.8 °C 13.4 °C 1016.3 hPa NW 6.4 km/h 16.1 km/h 52% 0.0 mm 37 W/m2
20:37 23.7 °C 13.3 °C 1016.3 hPa WNW 7.9 km/h 19.3 km/h 52% 0.0 mm 35 W/m2
20:42 23.5 °C 13.1 °C 1016.3 hPa NW 13 km/h 17.7 km/h 52% 0.0 mm 32 W/m2
20:47 23.4 °C 13.3 °C 1016.3 hPa WNW 11.1 km/h 12.9 km/h 53% 0.0 mm 46 W/m2
20:52 23.3 °C 13.2 °C 1016.3 hPa WNW 4.7 km/h 16.1 km/h 53% 0.0 mm 58 W/m2
20:57 23.2 °C 13.4 °C 1016.6 hPa WSW 11.1 km/h 12.9 km/h 54% 0.0 mm 53 W/m2
21:02 23 °C 13.2 °C 1016.6 hPa NW 1.4 km/h 12.9 km/h 54% 0.0 mm 44 W/m2
21:07 22.9 °C 13.1 °C 1016.6 hPa NW 4.7 km/h 11.3 km/h 54% 0.0 mm 37 W/m2
21:12 22.8 °C 13 °C 1016.6 hPa WNW 4.7 km/h 14.5 km/h 54% 0.0 mm 28 W/m2
21:17 22.6 °C 12.8 °C 1016.6 hPa NNW 6.4 km/h 17.7 km/h 54% 0.0 mm 14 W/m2
21:22 22.3 °C 12.8 °C 1016.6 hPa WSW 9.7 km/h 14.5 km/h 55% 0.0 mm 12 W/m2
21:28 22.1 °C 12.9 °C 1016.6 hPa West 4.7 km/h 9.7 km/h 56% 0.0 mm 11 W/m2
21:33 21.9 °C 12.7 °C 1016.9 hPa WNW 6.4 km/h 12.9 km/h 56% 0.0 mm 7 W/m2
21:38 21.8 °C 12.9 °C 1016.9 hPa WSW 6.4 km/h 9.7 km/h 57% 0.0 mm 5 W/m2
21:43 21.6 °C 12.7 °C 1016.9 hPa WSW 3.2 km/h 12.9 km/h 57% 0.0 mm 5 W/m2
21:48 21.4 °C 12.8 °C 1016.9 hPa WSW 6.4 km/h 6.4 km/h 58% 0.0 mm 0 W/m2
21:53 21.3 °C 12.7 °C 1016.9 hPa West 3.2 km/h 6.4 km/h 58% 0.0 mm 0 W/m2
21:58 21.2 °C 12.6 °C 1017.3 hPa WSW 3.2 km/h 11.3 km/h 58% 0.0 mm 0 W/m2
22:03 21 °C 12.7 °C 1017.3 hPa WNW 11.1 km/h 12.9 km/h 59% 0.0 mm 0 W/m2
22:08 20.9 °C 12.6 °C 1017.3 hPa SW 6.4 km/h 16.1 km/h 59% 0.0 mm 0 W/m2
22:13 20.8 °C 12.5 °C 1017.6 hPa West 4.7 km/h 12.9 km/h 59% 0.0 mm 0 W/m2
22:18 20.8 °C 12.5 °C 1017.6 hPa WNW 4.7 km/h 9.7 km/h 59% 0.0 mm 0 W/m2
22:23 20.7 °C 12.4 °C 1017.6 hPa SW 13 km/h 14.5 km/h 59% 0.0 mm 0 W/m2
22:28 20.6 °C 12.3 °C 1018.0 hPa WNW 4.7 km/h 9.7 km/h 59% 0.0 mm 0 W/m2
22:33 20.4 °C 12.1 °C 1018.0 hPa West 4.7 km/h 6.4 km/h 59% 0.0 mm 0 W/m2
22:38 20.3 °C 12.3 °C 1018.0 hPa WSW 4.7 km/h 11.3 km/h 60% 0.0 mm 0 W/m2
22:43 20.2 °C 12.2 °C 1018.0 hPa West 6.4 km/h 14.5 km/h 60% 0.0 mm 0 W/m2
22:48 20.1 °C 12.3 °C 1018.0 hPa NW 3.2 km/h 9.7 km/h 61% 0.0 mm 0 W/m2
22:53 19.9 °C 12.2 °C 1018.0 hPa NW 4.7 km/h 14.5 km/h 61% 0.0 mm 0 W/m2
22:58 19.8 °C 12.1 °C 1018.0 hPa West 3.2 km/h 6.4 km/h 61% 0.0 mm 0 W/m2
23:03 19.7 °C 12.2 °C 1018.0 hPa WSW 4.7 km/h 6.4 km/h 62% 0.0 mm 0 W/m2
23:08 19.6 °C 12.4 °C 1018.0 hPa West 3.2 km/h 6.4 km/h 63% 0.0 mm 0 W/m2
23:13 19.4 °C 12.2 °C 1018.0 hPa West 4.7 km/h 4.8 km/h 63% 0.0 mm 0 W/m2
23:18 19.2 °C 12.2 °C 1018.0 hPa West 4.7 km/h 6.4 km/h 64% 0.0 mm 0 W/m2
23:23 19.1 °C 12.1 °C 1018.0 hPa West 3.2 km/h 9.7 km/h 64% 0.0 mm 0 W/m2
23:28 19 °C 12.3 °C 1018.0 hPa WSW 4.7 km/h 4.8 km/h 65% 0.0 mm 0 W/m2
23:33 18.8 °C 12.1 °C 1018.0 hPa West 1.4 km/h 4.8 km/h 65% 0.0 mm 0 W/m2
23:38 18.6 °C 12.1 °C 1018.0 hPa West 3.2 km/h 4.8 km/h 66% 0.0 mm 0 W/m2
23:43 18.4 °C 11.9 °C 1018.0 hPa WSW 3.2 km/h 6.4 km/h 66% 0.0 mm 0 W/m2
23:48 18.3 °C 12.1 °C 1018.0 hPa West 3.2 km/h 4.8 km/h 67% 0.0 mm 0 W/m2
23:53 18.2 °C 12 °C 1018.3 hPa West 9.7 km/h 9.7 km/h 67% 0.0 mm 0 W/m2
23:58 18.3 °C 12.1 °C 1018.3 hPa West 3.2 km/h 8 km/h 67% 0.0 mm 0 W/m2
Juneau County Weather
Compliments of Weather Underground - 4 mb